Regional Weather Roundup
Issued by NWS Kansas City/Pleasant Hill, MO

Home | Current Version | Previous Version | Text Only | Print | Product List | Glossary On
Versions: 1 2 3 4 5 6 7 8 9 10 11 12 13 14 15 16 17 18 19 20 21 22 23 24 25 26 27 28 29 30 31 32 33 34 35 36 37 38 39 40 41 42 43 44 45 46 47 48 49 50
000
ASUS43 KEAX 041711
RWREAX

WEATHER ROUNDUP FOR EASTERN KANSAS AND NORTHWEST MISSOURI
NATIONAL WEATHER SERVICE KANSAS CITY/PLEASANT HILL MO
1200 PM CDT SAT JUL 04 2015

KSZ040-057-103>105-MOZ028-029-037-043-041800-
...KANSAS CITY METROPOLITAN AREA...

CITY           SKY/WX    TMP DP  RH WIND       PRES   REMARKS
K.C. INTL      PTSUNNY   77  62  59 E5        30.02F
K.C. DOWNTOWN  SUNNY     79  61  53 CALM      30.01F
LEES SUMMIT    SUNNY     77  61  57 CALM      30.03F
OLATHE - IXD   SUNNY     78  60  53 E5        30.03S
OLATHE - OJC   SUNNY     76  61  59 E5        30.02F
LAWRENCE       SUNNY     79  63  57 E6        30.02F

$$

MOZ001>008-011>017-020>025-030>033-038>040-044>046-053-054-041800-
...NORTHERN AND CENTRAL MISSOURI...

CITY           SKY/WX    TMP DP  RH WIND       PRES   REMARKS
ST. JOSEPH     SUNNY     78  60  53 S5        30.02F
MOSBY          SUNNY     77  59  53 SE5       30.03S
HARRISONVILLE  SUNNY     82  63  51 E3        30.04S
WARRENSBURG    SUNNY     79  63  57 S3        30.02F
WHITEMAN AFB   SUNNY     78  62  58 VRB5      30.01F
CLINTON        SUNNY     79  64  61 E5        30.02F
SEDALIA        SUNNY     80  61  52 SE5       30.04F
WARSAW         FAIR      81  64  57 SE5       30.03F
CHILLICOTHE      N/A     78  62  57 S6        30.04S
KIRKSVILLE     SUNNY     77  61  57 VRB5      30.05S

$$

MOZ041-047>049-056>058-063>065-088>090-097-041800-
...EASTERN AND SOUTHERN MISSOURI...

CITY           SKY/WX    TMP DP  RH WIND       PRES   REMARKS
ST. LOUIS INTL MOSUNNY   81  61  50 CALM      30.03S
SPIRIT OF STL  MOSUNNY   78  64  61 CALM      30.02S
COLUMBIA       MOSUNNY   79  63  57 SE5       30.04R
JEFFERSON CITY SUNNY     79  59  50 VRB3      30.02S
MEXICO         SUNNY     81  68  65 CALM      30.03F
ROLLA          MOSUNNY   77  65  66 NE3       30.03S
LEBANON        SUNNY     81  63  54 MISG      30.05S
OSAGE BEACH    MOSUNNY   79  63  57 SE3       30.04S
SPRINGFIELD    MOSUNNY   80  65  59 VRB3      30.03R
BRANSON        CLOUDY    79  68  69 E6        30.03S
JOPLIN         MOSUNNY   82  68  62 E6        30.01R
WEST PLAINS    PTSUNNY   76  66  71 E3        30.04S
MALDEN         CLOUDY    77  70  78 E6        30.01S

$$

IAZ060-094-KSZ022-034>040-054-083-096-NEZ052-066-093-041800-
...KANSAS...SOUTHEAST NEBRASKA AND IOWA...

CITY           SKY/WX    TMP DP  RH WIND       PRES   REMARKS
TOPEKA         SUNNY     79  62  56 SE7       30.01F
MANHATTAN      MOSUNNY   81  60  48 VRB5      30.00S
EMPORIA        SUNNY     81  61  50 E10       30.01F
CHANUTE        SUNNY     81  66  60 VRB7      30.01S
WICHITA        MOSUNNY   82  65  56 SE10      30.00S
OMAHA          PTSUNNY   78  59  51 SE8       30.00S
LINCOLN        PTSUNNY   77  61  57 S8        30.00S
FALLS CITY     SUNNY     78  60  53 SE9       30.01F
LAMONI         SUNNY     77  58  51 SE6       30.04R
DES MOINES     MOSUNNY   78  58  49 VRB5      30.01S

$$



USA.gov is the U.S. government's official web portal to all federal, state and local government web resources and services.